Time,TemperatureF,DewpointF,PressureIn,WindDirection,WindDirectionDegrees,WindSpeedMPH,WindSpeedGustMPH,Humidity,HourlyPrecipIn,Conditions,Clouds,dailyrainin,SoftwareType,DateUTC
2013-02-05 00:00:00,38.7,29.8,30.03,SW,234,0.0,0.0,70,0.00,,---,0.00,VWS V14.00,2013-02-05 05:00:00,
2013-02-05 00:05:00,38.3,29.4,30.02,SW,234,0.0,0.0,70,0.00,,---,0.00,VWS V14.00,2013-02-05 05:05:00,
2013-02-05 00:10:00,38.0,29.8,30.02,SW,234,0.0,0.0,72,0.00,,---,0.00,VWS V14.00,2013-02-05 05:10:00,
2013-02-05 00:15:00,37.6,29.7,30.02,SW,234,0.0,0.0,73,0.00,,---,0.00,VWS V14.00,2013-02-05 05:15:00,
2013-02-05 00:20:00,37.3,29.5,30.02,SW,234,0.0,0.0,73,0.00,,---,0.00,VWS V14.00,2013-02-05 05:20:00,
2013-02-05 00:25:00,37.1,29.6,30.02,SW,234,0.0,0.0,74,0.00,,---,0.00,VWS V14.00,2013-02-05 05:25:00,
2013-02-05 00:30:00,36.8,29.6,30.01,SW,234,1.0,2.0,75,0.00,,---,0.00,VWS V14.00,2013-02-05 05:30:00,
2013-02-05 00:35:00,36.6,29.4,30.01,SW,234,0.0,2.0,75,0.00,,---,0.00,VWS V14.00,2013-02-05 05:35:00,
2013-02-05 00:40:00,36.6,29.8,30.01,SW,234,1.0,3.0,76,0.00,,---,0.00,VWS V14.00,2013-02-05 05:40:00,
2013-02-05 00:45:00,36.7,29.9,30.01,SW,234,3.0,4.0,76,0.00,,---,0.00,VWS V14.00,2013-02-05 05:45:00,
2013-02-05 00:50:00,36.9,30.0,30.01,SW,234,0.0,2.0,76,0.00,,---,0.00,VWS V14.00,2013-02-05 05:50:00,
2013-02-05 00:55:00,37.4,30.2,30.01,SW,234,4.0,5.0,75,0.00,,---,0.00,VWS V14.00,2013-02-05 05:55:00,
2013-02-05 01:00:00,37.8,30.6,30.01,SW,234,3.0,3.0,75,0.00,,---,0.00,VWS V14.00,2013-02-05 06:00:00,
2013-02-05 01:05:00,38.1,30.6,30.00,SW,234,0.0,0.0,74,0.00,,---,0.00,VWS V14.00,2013-02-05 06:05:00,
2013-02-05 01:10:00,38.2,31.0,30.00,SW,234,0.0,0.0,75,0.00,,---,0.00,VWS V14.00,2013-02-05 06:10:00,
2013-02-05 01:15:00,38.1,31.2,30.00,SW,234,0.0,0.0,76,0.00,,---,0.00,VWS V14.00,2013-02-05 06:15:00,
2013-02-05 01:20:00,38.0,30.8,30.00,SW,234,0.0,0.0,75,0.00,,---,0.00,VWS V14.00,2013-02-05 06:20:00,
2013-02-05 01:25:00,37.8,30.9,30.00,SW,234,0.0,0.0,76,0.00,,---,0.00,VWS V14.00,2013-02-05 06:25:00,
2013-02-05 01:30:00,37.6,30.4,30.00,SW,234,0.0,0.0,75,0.00,,---,0.00,VWS V14.00,2013-02-05 06:30:00,
2013-02-05 01:35:00,37.4,30.5,30.00,SW,234,0.0,0.0,76,0.00,,---,0.00,VWS V14.00,2013-02-05 06:35:00,
2013-02-05 01:40:00,37.3,30.8,30.00,SW,234,0.0,0.0,77,0.00,,---,0.00,VWS V14.00,2013-02-05 06:40:00,
2013-02-05 01:45:00,37.1,30.6,30.00,SW,234,0.0,0.0,77,0.00,,---,0.00,VWS V14.00,2013-02-05 06:45:00,
2013-02-05 01:50:00,37.0,30.8,30.00,SW,234,0.0,0.0,78,0.00,,---,0.00,VWS V14.00,2013-02-05 06:50:00,
2013-02-05 01:55:00,36.8,30.6,30.00,SW,234,0.0,0.0,78,0.00,,---,0.00,VWS V14.00,2013-02-05 06:55:00,
2013-02-05 02:00:00,36.8,30.6,30.00,SW,234,0.0,0.0,78,0.00,,---,0.00,VWS V14.00,2013-02-05 07:00:00,
2013-02-05 02:05:00,36.6,30.7,29.99,SW,234,0.0,0.0,79,0.00,,---,0.00,VWS V14.00,2013-02-05 07:05:00,
2013-02-05 02:10:00,36.5,30.6,29.99,SW,234,0.0,0.0,79,0.00,,---,0.00,VWS V14.00,2013-02-05 07:10:00,
2013-02-05 02:15:00,36.4,30.8,29.99,SW,234,0.0,0.0,80,0.00,,---,0.00,VWS V14.00,2013-02-05 07:15:00,
2013-02-05 02:20:00,36.3,30.7,29.99,SW,234,0.0,0.0,80,0.00,,---,0.00,VWS V14.00,2013-02-05 07:20:00,
2013-02-05 02:25:00,36.3,31.0,29.99,SW,234,5.0,5.0,81,0.00,,---,0.00,VWS V14.00,2013-02-05 07:25:00,
2013-02-05 02:30:00,36.7,31.1,29.99,SW,234,2.0,5.0,80,0.00,,---,0.00,VWS V14.00,2013-02-05 07:30:00,
2013-02-05 02:35:00,37.6,31.4,29.98,SW,236,6.0,7.0,78,0.00,,---,0.00,VWS V14.00,2013-02-05 07:35:00,
2013-02-05 02:40:00,38.4,31.8,29.98,SW,234,4.0,4.0,77,0.00,,---,0.00,VWS V14.00,2013-02-05 07:40:00,
2013-02-05 02:45:00,38.9,31.7,29.98,SW,230,4.0,6.0,75,0.00,,---,0.00,VWS V14.00,2013-02-05 07:45:00,
2013-02-05 02:50:00,39.1,31.9,29.98,SW,224,5.0,5.0,75,0.00,,---,0.00,VWS V14.00,2013-02-05 07:50:00,
2013-02-05 02:55:00,39.3,31.7,29.98,SW,232,3.0,6.0,74,0.00,,---,0.00,VWS V14.00,2013-02-05 07:55:00,
2013-02-05 03:00:00,39.3,31.4,29.98,WSW,253,7.0,10.0,73,0.00,,---,0.00,VWS V14.00,2013-02-05 08:00:00,
2013-02-05 03:05:00,39.5,31.6,29.97,WSW,257,4.0,6.0,73,0.00,,---,0.00,VWS V14.00,2013-02-05 08:05:00,
2013-02-05 03:10:00,39.6,31.3,29.97,WSW,239,5.0,8.0,72,0.00,,---,0.00,VWS V14.00,2013-02-05 08:10:00,
2013-02-05 03:15:00,39.6,31.3,29.97,SW,224,3.0,9.0,72,0.00,,---,0.00,VWS V14.00,2013-02-05 08:15:00,
2013-02-05 03:20:00,39.4,31.1,29.97,SW,228,5.0,7.0,72,0.00,,---,0.00,VWS V14.00,2013-02-05 08:20:00,
2013-02-05 03:25:00,39.3,31.4,29.97,SW,225,5.0,9.0,73,0.00,,---,0.00,VWS V14.00,2013-02-05 08:25:00,
2013-02-05 03:30:00,39.1,31.2,29.97,SW,226,8.0,8.0,73,0.00,,---,0.00,VWS V14.00,2013-02-05 08:30:00,
2013-02-05 03:35:00,39.0,31.1,29.97,SW,231,5.0,5.0,73,0.00,,---,0.00,VWS V14.00,2013-02-05 08:35:00,
2013-02-05 03:40:00,38.9,31.0,29.97,WSW,247,4.0,6.0,73,0.00,,---,0.00,VWS V14.00,2013-02-05 08:40:00,
2013-02-05 03:45:00,38.9,31.0,29.97,WSW,252,3.0,4.0,73,0.00,,---,0.00,VWS V14.00,2013-02-05 08:45:00,
2013-02-05 03:50:00,39.1,31.2,29.97,West,268,3.0,6.0,73,0.00,,---,0.00,VWS V14.00,2013-02-05 08:50:00,
2013-02-05 03:55:00,39.1,30.9,29.97,WSW,257,4.0,4.0,72,0.00,,---,0.00,VWS V14.00,2013-02-05 08:55:00,
2013-02-05 04:00:00,39.1,30.9,29.96,WSW,253,3.0,3.0,72,0.00,,---,0.00,VWS V14.00,2013-02-05 09:00:00,
2013-02-05 04:05:00,39.0,30.8,29.96,WSW,252,5.0,7.0,72,0.00,,---,0.00,VWS V14.00,2013-02-05 09:05:00,
2013-02-05 04:10:00,38.8,30.9,29.96,WSW,242,3.0,4.0,73,0.00,,---,0.00,VWS V14.00,2013-02-05 09:10:00,
2013-02-05 04:15:00,38.7,30.8,29.96,WSW,242,4.0,4.0,73,0.00,,---,0.00,VWS V14.00,2013-02-05 09:15:00,
2013-02-05 04:20:00,38.5,30.6,29.96,WSW,242,3.0,3.0,73,0.00,,---,0.00,VWS V14.00,2013-02-05 09:20:00,
2013-02-05 04:25:00,38.4,30.5,29.96,WSW,252,0.0,0.0,73,0.00,,---,0.00,VWS V14.00,2013-02-05 09:25:00,
2013-02-05 04:30:00,38.3,30.4,29.96,WSW,252,1.0,1.0,73,0.00,,---,0.00,VWS V14.00,2013-02-05 09:30:00,
2013-02-05 04:35:00,38.2,30.7,29.96,West,261,3.0,4.0,74,0.00,,---,0.00,VWS V14.00,2013-02-05 09:35:00,
2013-02-05 04:40:00,38.2,31.0,29.96,West,261,2.0,3.0,75,0.00,,---,0.00,VWS V14.00,2013-02-05 09:40:00,
2013-02-05 04:45:00,38.1,30.6,29.96,West,270,3.0,3.0,74,0.00,,---,0.00,VWS V14.00,2013-02-05 09:45:00,
2013-02-05 04:50:00,38.0,30.5,29.96,WSW,248,0.0,0.0,74,0.00,,---,0.00,VWS V14.00,2013-02-05 09:50:00,
2013-02-05 04:55:00,38.0,30.5,29.96,West,262,6.0,6.0,74,0.00,,---,0.00,VWS V14.00,2013-02-05 09:55:00,
2013-02-05 05:00:00,38.3,30.4,29.96,WSW,255,7.0,7.0,73,0.00,,---,0.00,VWS V14.00,2013-02-05 10:00:00,
2013-02-05 05:05:00,38.6,30.4,29.95,West,263,5.0,8.0,72,0.00,,---,0.00,VWS V14.00,2013-02-05 10:05:00,
2013-02-05 05:10:00,38.8,30.2,29.96,West,260,4.0,6.0,71,0.00,,---,0.00,VWS V14.00,2013-02-05 10:10:00,
2013-02-05 05:15:00,39.0,30.4,29.96,SW,232,4.0,5.0,71,0.00,,---,0.00,VWS V14.00,2013-02-05 10:15:00,
2013-02-05 05:20:00,38.9,30.3,29.96,West,267,3.0,3.0,71,0.00,,---,0.00,VWS V14.00,2013-02-05 10:20:00,
2013-02-05 05:25:00,38.8,30.2,29.97,NW,304,7.0,9.0,71,0.00,,---,0.00,VWS V14.00,2013-02-05 10:25:00,
2013-02-05 05:30:00,38.8,30.2,29.97,West,269,3.0,3.0,71,0.00,,---,0.00,VWS V14.00,2013-02-05 10:30:00,
2013-02-05 05:35:00,38.6,30.4,29.97,West,263,0.0,3.0,72,0.00,,---,0.00,VWS V14.00,2013-02-05 10:35:00,
2013-02-05 05:40:00,38.5,30.3,29.97,West,266,5.0,6.0,72,0.00,,---,0.00,VWS V14.00,2013-02-05 10:40:00,
2013-02-05 05:45:00,38.4,30.2,29.97,West,281,1.0,1.0,72,0.00,,---,0.00,VWS V14.00,2013-02-05 10:45:00,
2013-02-05 05:50:00,38.2,30.3,29.97,WSW,244,0.0,0.0,73,0.00,,---,0.00,VWS V14.00,2013-02-05 10:50:00,
2013-02-05 05:55:00,38.2,30.3,29.97,WSW,257,5.0,7.0,73,0.00,,---,0.00,VWS V14.00,2013-02-05 10:55:00,
2013-02-05 06:00:00,38.2,30.3,29.97,WSW,258,3.0,4.0,73,0.00,,---,0.00,VWS V14.00,2013-02-05 11:00:00,
2013-02-05 06:05:00,38.4,30.5,29.97,WNW,296,3.0,4.0,73,0.00,,---,0.00,VWS V14.00,2013-02-05 11:05:00,
2013-02-05 06:10:00,38.6,30.7,29.98,West,261,3.0,3.0,73,0.00,,---,0.00,VWS V14.00,2013-02-05 11:10:00,
2013-02-05 06:15:00,38.7,30.8,29.98,WSW,254,2.0,4.0,73,0.00,,---,0.00,VWS V14.00,2013-02-05 11:15:00,
2013-02-05 06:20:00,38.8,30.9,29.97,WNW,284,3.0,5.0,73,0.00,,---,0.00,VWS V14.00,2013-02-05 11:20:00,
2013-02-05 06:25:00,38.8,30.6,29.97,SW,234,4.0,5.0,72,0.00,,---,0.00,VWS V14.00,2013-02-05 11:25:00,
2013-02-05 06:30:00,38.9,30.7,29.97,WNW,290,2.0,5.0,72,0.00,,---,0.00,VWS V14.00,2013-02-05 11:30:00,
2013-02-05 06:35:00,38.8,30.6,29.96,WSW,245,5.0,6.0,72,0.00,,---,0.00,VWS V14.00,2013-02-05 11:35:00,
2013-02-05 06:40:00,38.7,30.8,29.97,West,261,0.0,2.0,73,0.00,,---,0.00,VWS V14.00,2013-02-05 11:40:00,
2013-02-05 06:45:00,38.5,30.3,29.97,West,273,1.0,2.0,72,0.00,,---,0.00,VWS V14.00,2013-02-05 11:45:00,
2013-02-05 06:50:00,38.3,30.4,29.97,WSW,251,3.0,5.0,73,0.00,,---,0.00,VWS V14.00,2013-02-05 11:50:00,
2013-02-05 06:55:00,38.2,30.3,29.97,WSW,254,6.0,6.0,73,0.00,,---,0.00,VWS V14.00,2013-02-05 11:55:00,
2013-02-05 07:00:00,38.0,30.5,29.97,West,275,2.0,4.0,74,0.00,,---,0.00,VWS V14.00,2013-02-05 12:00:00,
2013-02-05 07:05:00,37.9,30.4,29.98,WSW,258,4.0,5.0,74,0.00,,---,0.00,VWS V14.00,2013-02-05 12:05:00,
2013-02-05 07:10:00,37.8,30.6,29.98,WSW,246,7.0,7.0,75,0.00,,---,0.00,VWS V14.00,2013-02-05 12:10:00,
2013-02-05 07:15:00,37.8,30.6,29.98,West,271,3.0,5.0,75,0.00,,---,0.00,VWS V14.00,2013-02-05 12:15:00,
2013-02-05 07:20:00,37.8,30.6,29.98,West,267,3.0,4.0,75,0.00,,---,0.00,VWS V14.00,2013-02-05 12:20:00,
2013-02-05 07:26:00,37.8,30.6,29.98,West,273,4.0,6.0,75,0.00,,---,0.00,VWS V14.00,2013-02-05 12:26:00,
2013-02-05 07:31:00,37.8,30.6,29.98,West,267,3.0,7.0,75,0.00,,---,0.00,VWS V14.00,2013-02-05 12:31:00,
2013-02-05 07:36:00,37.8,30.6,29.98,WSW,257,9.0,9.0,75,0.00,,---,0.00,VWS V14.00,2013-02-05 12:36:00,
2013-02-05 07:41:00,37.9,30.7,29.98,WSW,257,8.0,11.0,75,0.00,,---,0.00,VWS V14.00,2013-02-05 12:41:00,
2013-02-05 07:46:00,38.3,30.8,29.98,WSW,247,8.0,9.0,74,0.00,,---,0.00,VWS V14.00,2013-02-05 12:46:00,
2013-02-05 07:51:00,38.8,31.2,29.99,WSW,245,3.0,5.0,74,0.00,,---,0.00,VWS V14.00,2013-02-05 12:51:00,
2013-02-05 07:56:00,39.0,31.1,29.99,WSW,242,4.0,4.0,73,0.00,,---,0.00,VWS V14.00,2013-02-05 12:56:00,
2013-02-05 08:01:00,39.3,31.4,29.99,WSW,258,5.0,8.0,73,0.00,,---,0.00,VWS V14.00,2013-02-05 13:01:00,
2013-02-05 08:06:00,39.5,31.2,29.99,WSW,258,7.0,11.0,72,0.00,,---,0.00,VWS V14.00,2013-02-05 13:06:00,
2013-02-05 08:11:00,39.9,31.3,29.99,West,262,5.0,11.0,71,0.00,,---,0.00,VWS V14.00,2013-02-05 13:11:00,
2013-02-05 08:16:00,40.1,31.1,29.99,SW,221,4.0,6.0,70,0.00,,---,0.00,VWS V14.00,2013-02-05 13:16:00,
2013-02-05 08:21:00,40.3,31.7,29.99,SW,227,5.0,9.0,71,0.00,,---,0.00,VWS V14.00,2013-02-05 13:21:00,
2013-02-05 08:26:00,40.4,31.4,30.00,West,273,8.0,9.0,70,0.00,,---,0.00,VWS V14.00,2013-02-05 13:26:00,
2013-02-05 08:31:00,40.6,32.0,30.00,WSW,238,4.0,8.0,71,0.00,,---,0.00,VWS V14.00,2013-02-05 13:31:00,
2013-02-05 08:36:00,40.7,31.7,30.00,WSW,252,7.0,7.0,70,0.00,,---,0.00,VWS V14.00,2013-02-05 13:36:00,
2013-02-05 08:41:00,41.0,32.0,30.00,SW,235,11.0,15.0,70,0.00,,---,0.00,VWS V14.00,2013-02-05 13:41:00,
2013-02-05 08:46:00,41.3,31.9,30.00,West,263,9.0,9.0,69,0.00,,---,0.00,VWS V14.00,2013-02-05 13:46:00,
2013-02-05 08:51:00,41.4,32.0,30.00,SW,236,8.0,11.0,69,0.00,,---,0.00,VWS V14.00,2013-02-05 13:51:00,
2013-02-05 08:56:00,41.6,32.2,30.00,WSW,252,9.0,9.0,69,0.00,,---,0.00,VWS V14.00,2013-02-05 13:56:00,
2013-02-05 09:01:00,42.0,32.6,30.00,SW,218,6.0,9.0,69,0.00,,---,0.00,VWS V14.00,2013-02-05 14:01:00,
2013-02-05 09:06:00,42.5,32.7,30.00,WSW,248,8.0,10.0,68,0.00,,---,0.00,VWS V14.00,2013-02-05 14:06:00,
2013-02-05 09:11:00,42.6,32.8,30.00,West,265,7.0,9.0,68,0.00,,---,0.00,VWS V14.00,2013-02-05 14:11:00,
2013-02-05 09:16:00,42.5,33.1,30.00,WNW,288,5.0,5.0,69,0.00,,---,0.00,VWS V14.00,2013-02-05 14:16:00,
2013-02-05 09:21:00,42.5,33.1,30.01,SW,236,7.0,12.0,69,0.00,,---,0.00,VWS V14.00,2013-02-05 14:21:00,
2013-02-05 09:26:00,43.0,32.8,30.00,SW,229,8.0,15.0,67,0.00,,---,0.00,VWS V14.00,2013-02-05 14:26:00,
2013-02-05 09:31:00,43.5,33.3,30.00,West,265,6.0,13.0,67,0.00,,---,0.00,VWS V14.00,2013-02-05 14:31:00,
2013-02-05 09:36:00,44.0,33.4,30.00,SW,219,7.0,10.0,66,0.00,,---,0.00,VWS V14.00,2013-02-05 14:36:00,
2013-02-05 09:41:00,44.1,33.1,30.00,WSW,238,6.0,8.0,65,0.00,,---,0.00,VWS V14.00,2013-02-05 14:41:00,
2013-02-05 09:46:00,44.2,33.6,30.00,WSW,242,8.0,8.0,66,0.00,,---,0.00,VWS V14.00,2013-02-05 14:46:00,
2013-02-05 09:51:00,44.3,33.3,30.00,SW,231,9.0,10.0,65,0.00,,---,0.00,VWS V14.00,2013-02-05 14:51:00,
2013-02-05 09:56:00,44.4,33.4,30.00,SW,236,6.0,10.0,65,0.00,,---,0.00,VWS V14.00,2013-02-05 14:56:00,
2013-02-05 10:01:00,44.6,33.6,30.00,WSW,244,5.0,10.0,65,0.00,,---,0.00,VWS V14.00,2013-02-05 15:01:00,
2013-02-05 10:06:00,44.7,33.7,30.00,SW,214,6.0,8.0,65,0.00,,---,0.00,VWS V14.00,2013-02-05 15:06:00,
2013-02-05 10:11:00,44.8,33.8,30.00,WSW,242,8.0,13.0,65,0.00,,---,0.00,VWS V14.00,2013-02-05 15:11:00,
2013-02-05 10:16:00,45.3,34.2,30.00,SW,236,6.0,10.0,65,0.00,,---,0.00,VWS V14.00,2013-02-05 15:16:00,
2013-02-05 10:21:00,46.0,34.5,30.00,SSW,213,8.0,13.0,64,0.00,,---,0.00,VWS V14.00,2013-02-05 15:21:00,
2013-02-05 10:26:00,46.8,34.9,30.00,SW,220,8.0,13.0,63,0.00,,---,0.00,VWS V14.00,2013-02-05 15:26:00,
2013-02-05 10:31:00,47.6,35.2,30.00,WSW,254,4.0,8.0,62,0.00,,---,0.00,VWS V14.00,2013-02-05 15:31:00,
2013-02-05 10:36:00,48.5,36.1,30.00,SW,223,0.0,4.0,62,0.00,,---,0.00,VWS V14.00,2013-02-05 15:36:00,
2013-02-05 10:41:00,49.5,36.2,30.00,WSW,244,4.0,6.0,60,0.00,,---,0.00,VWS V14.00,2013-02-05 15:41:00,
2013-02-05 10:46:00,50.4,36.2,30.00,WSW,248,6.0,10.0,58,0.00,,---,0.00,VWS V14.00,2013-02-05 15:46:00,
2013-02-05 10:51:00,51.0,36.3,30.00,WSW,250,7.0,9.0,57,0.00,,---,0.00,VWS V14.00,2013-02-05 15:51:00,
2013-02-05 10:56:00,51.6,36.4,30.00,West,274,5.0,10.0,56,0.00,,---,0.00,VWS V14.00,2013-02-05 15:56:00,
2013-02-05 11:01:00,51.9,37.2,30.00,WSW,246,7.0,8.0,57,0.00,,---,0.00,VWS V14.00,2013-02-05 16:01:00,
2013-02-05 11:06:00,52.6,37.8,30.00,WSW,239,2.0,8.0,57,0.00,,---,0.00,VWS V14.00,2013-02-05 16:06:00,
2013-02-05 11:11:00,53.3,37.1,30.00,NNW,332,7.0,14.0,54,0.00,,---,0.00,VWS V14.00,2013-02-05 16:11:00,
2013-02-05 11:16:00,53.6,37.4,30.00,West,264,8.0,10.0,54,0.00,,---,0.00,VWS V14.00,2013-02-05 16:16:00,
2013-02-05 11:21:00,53.9,37.7,30.00,WSW,255,6.0,14.0,54,0.00,,---,0.00,VWS V14.00,2013-02-05 16:21:00,
2013-02-05 11:26:00,54.0,37.3,30.00,WNW,283,3.0,11.0,53,0.00,,---,0.00,VWS V14.00,2013-02-05 16:26:00,
2013-02-05 11:31:00,54.3,38.5,29.99,WSW,242,2.0,7.0,55,0.00,,---,0.00,VWS V14.00,2013-02-05 16:31:00,
2013-02-05 11:36:00,55.0,38.2,29.99,WSW,247,6.0,10.0,53,0.00,,---,0.00,VWS V14.00,2013-02-05 16:36:00,
2013-02-05 11:41:00,55.8,38.5,29.99,WSW,249,6.0,6.0,52,0.00,,---,0.00,VWS V14.00,2013-02-05 16:41:00,
2013-02-05 11:46:00,56.3,39.4,29.99,SW,225,3.0,9.0,53,0.00,,---,0.00,VWS V14.00,2013-02-05 16:46:00,
2013-02-05 11:51:00,56.7,39.8,29.99,WNW,284,1.0,5.0,53,0.00,,---,0.00,VWS V14.00,2013-02-05 16:51:00,
2013-02-05 11:56:00,57.2,40.7,29.99,West,270,3.0,9.0,54,0.00,,---,0.00,VWS V14.00,2013-02-05 16:56:00,
2013-02-05 12:01:00,57.5,40.0,29.99,West,260,7.0,9.0,52,0.00,,---,0.00,VWS V14.00,2013-02-05 17:01:00,
2013-02-05 12:06:00,57.7,40.7,29.99,SW,232,10.0,12.0,53,0.00,,---,0.00,VWS V14.00,2013-02-05 17:06:00,
2013-02-05 12:11:00,57.9,41.4,29.99,West,262,6.0,8.0,54,0.00,,---,0.00,VWS V14.00,2013-02-05 17:11:00,
2013-02-05 12:16:00,57.9,41.4,29.98,SSW,213,7.0,10.0,54,0.00,,---,0.00,VWS V14.00,2013-02-05 17:16:00,
2013-02-05 12:21:00,58.3,41.8,29.99,West,259,6.0,11.0,54,0.00,,---,0.00,VWS V14.00,2013-02-05 17:21:00,
2013-02-05 12:26:00,58.8,42.7,29.98,SW,222,12.0,15.0,55,0.00,,---,0.00,VWS V14.00,2013-02-05 17:26:00,
2013-02-05 12:31:00,58.8,41.2,29.98,SW,227,9.0,13.0,52,0.00,,---,0.00,VWS V14.00,2013-02-05 17:31:00,
2013-02-05 12:36:00,59.0,41.4,29.97,SW,232,9.0,10.0,52,0.00,,---,0.00,VWS V14.00,2013-02-05 17:36:00,
2013-02-05 12:41:00,59.5,42.4,29.97,SSW,212,9.0,15.0,53,0.00,,---,0.00,VWS V14.00,2013-02-05 17:41:00,
2013-02-05 12:46:00,60.0,42.8,29.97,WNW,287,2.0,10.0,53,0.00,,---,0.00,VWS V14.00,2013-02-05 17:46:00,
2013-02-05 12:51:00,60.3,43.1,29.97,WSW,254,11.0,14.0,53,0.00,,---,0.00,VWS V14.00,2013-02-05 17:51:00,
2013-02-05 12:56:00,60.6,43.4,29.96,WSW,252,12.0,17.0,53,0.00,,---,0.00,VWS V14.00,2013-02-05 17:56:00,
2013-02-05 13:01:00,60.5,43.3,29.96,SW,230,11.0,12.0,53,0.00,,---,0.00,VWS V14.00,2013-02-05 18:01:00,
2013-02-05 13:06:00,60.3,43.1,29.95,SW,235,17.0,17.0,53,0.00,,---,0.00,VWS V14.00,2013-02-05 18:06:00,
2013-02-05 13:11:00,60.3,43.6,29.95,WSW,240,10.0,15.0,54,0.00,,---,0.00,VWS V14.00,2013-02-05 18:11:00,
2013-02-05 13:16:00,60.6,44.4,29.95,SW,229,10.0,14.0,55,0.00,,---,0.00,VWS V14.00,2013-02-05 18:16:00,
2013-02-05 13:21:00,60.6,44.4,29.95,WSW,240,12.0,17.0,55,0.00,,---,0.00,VWS V14.00,2013-02-05 18:21:00,
2013-02-05 13:26:00,60.5,43.8,29.95,SW,230,20.0,20.0,54,0.00,,---,0.00,VWS V14.00,2013-02-05 18:26:00,
2013-02-05 13:31:00,60.5,44.3,29.94,SW,234,13.0,13.0,55,0.00,,---,0.00,VWS V14.00,2013-02-05 18:31:00,
2013-02-05 13:36:00,60.7,44.5,29.94,WSW,252,5.0,7.0,55,0.00,,---,0.00,VWS V14.00,2013-02-05 18:36:00,
2013-02-05 13:41:00,60.6,44.4,29.94,WSW,244,11.0,15.0,55,0.00,,---,0.00,VWS V14.00,2013-02-05 18:41:00,
2013-02-05 13:46:00,60.8,45.0,29.94,WSW,240,12.0,12.0,56,0.00,,---,0.00,VWS V14.00,2013-02-05 18:46:00,
2013-02-05 13:51:00,61.2,44.4,29.93,WSW,252,10.0,10.0,54,0.00,,---,0.00,VWS V14.00,2013-02-05 18:51:00,
2013-02-05 13:56:00,61.5,44.7,29.94,WSW,252,14.0,14.0,54,0.00,,---,0.00,VWS V14.00,2013-02-05 18:56:00,
2013-02-05 14:01:00,61.8,45.0,29.93,West,269,2.0,2.0,54,0.00,,---,0.00,VWS V14.00,2013-02-05 19:01:00,
2013-02-05 14:06:00,61.9,44.6,29.93,WSW,250,9.0,11.0,53,0.00,,---,0.00,VWS V14.00,2013-02-05 19:06:00,
2013-02-05 14:11:00,61.7,44.9,29.93,WSW,257,9.0,14.0,54,0.00,,---,0.00,VWS V14.00,2013-02-05 19:11:00,
2013-02-05 14:16:00,61.8,44.5,29.93,WSW,241,4.0,12.0,53,0.00,,---,0.00,VWS V14.00,2013-02-05 19:16:00,
2013-02-05 14:21:00,61.9,44.6,29.93,West,265,7.0,7.0,53,0.00,,---,0.00,VWS V14.00,2013-02-05 19:21:00,
2013-02-05 14:26:00,62.0,44.7,29.92,West,271,11.0,14.0,53,0.00,,---,0.00,VWS V14.00,2013-02-05 19:26:00,
2013-02-05 14:31:00,62.4,44.6,29.92,WSW,246,15.0,17.0,52,0.00,,---,0.00,VWS V14.00,2013-02-05 19:31:00,
2013-02-05 14:36:00,62.4,44.6,29.92,WSW,248,10.0,13.0,52,0.00,,---,0.00,VWS V14.00,2013-02-05 19:36:00,
2013-02-05 14:41:00,62.0,44.2,29.92,West,265,6.0,18.0,52,0.00,,---,0.00,VWS V14.00,2013-02-05 19:41:00,
2013-02-05 14:46:00,61.8,44.5,29.92,SSW,204,7.0,8.0,53,0.00,,---,0.00,VWS V14.00,2013-02-05 19:46:00,
2013-02-05 14:51:00,62.0,44.7,29.92,WSW,251,4.0,18.0,53,0.00,,---,0.00,VWS V14.00,2013-02-05 19:51:00,
2013-02-05 14:56:00,62.1,44.3,29.92,West,273,8.0,17.0,52,0.00,,---,0.00,VWS V14.00,2013-02-05 19:56:00,
2013-02-05 15:01:00,62.3,44.0,29.92,West,268,11.0,11.0,51,0.00,,---,0.00,VWS V14.00,2013-02-05 20:01:00,
2013-02-05 15:06:00,62.1,43.3,29.92,SW,225,11.0,18.0,50,0.00,,---,0.00,VWS V14.00,2013-02-05 20:06:00,
2013-02-05 15:11:00,62.2,42.8,29.92,WSW,250,13.0,14.0,49,0.00,,---,0.00,VWS V14.00,2013-02-05 20:11:00,
2013-02-05 15:16:00,62.3,43.4,29.92,SW,215,8.0,8.0,50,0.00,,---,0.00,VWS V14.00,2013-02-05 20:16:00,
2013-02-05 15:21:00,62.5,43.6,29.92,WSW,250,13.0,14.0,50,0.00,,---,0.00,VWS V14.00,2013-02-05 20:21:00,
2013-02-05 15:26:00,62.5,42.6,29.92,WSW,242,4.0,5.0,48,0.00,,---,0.00,VWS V14.00,2013-02-05 20:26:00,
2013-02-05 15:31:00,62.5,42.0,29.92,SSW,203,11.0,16.0,47,0.00,,---,0.00,VWS V14.00,2013-02-05 20:31:00,
2013-02-05 15:36:00,62.3,42.4,29.92,SW,234,9.0,10.0,48,0.00,,---,0.00,VWS V14.00,2013-02-05 20:36:00,
2013-02-05 15:41:00,62.3,42.4,29.92,SW,230,15.0,15.0,48,0.00,,---,0.00,VWS V14.00,2013-02-05 20:41:00,
2013-02-05 15:46:00,62.2,41.7,29.92,SW,227,7.0,11.0,47,0.00,,---,0.00,VWS V14.00,2013-02-05 20:46:00,
2013-02-05 15:51:00,62.1,41.1,29.92,West,261,1.0,7.0,46,0.00,,---,0.00,VWS V14.00,2013-02-05 20:51:00,
2013-02-05 15:56:00,61.9,41.5,29.92,SW,227,8.0,8.0,47,0.00,,---,0.00,VWS V14.00,2013-02-05 20:56:00,
2013-02-05 16:01:00,61.8,41.4,29.92,WSW,240,7.0,9.0,47,0.00,,---,0.00,VWS V14.00,2013-02-05 21:01:00,
2013-02-05 16:06:00,61.8,41.4,29.92,West,264,4.0,5.0,47,0.00,,---,0.00,VWS V14.00,2013-02-05 21:06:00,
2013-02-05 16:11:00,61.7,41.8,29.92,SW,215,2.0,11.0,48,0.00,,---,0.00,VWS V14.00,2013-02-05 21:11:00,
2013-02-05 16:16:00,61.5,41.7,29.92,West,268,3.0,21.0,48,0.00,,---,0.00,VWS V14.00,2013-02-05 21:16:00,
2013-02-05 16:21:00,61.3,42.0,29.92,WSW,253,10.0,10.0,49,0.00,,---,0.00,VWS V14.00,2013-02-05 21:21:00,
2013-02-05 16:26:00,61.3,42.0,29.92,West,268,6.0,6.0,49,0.00,,---,0.00,VWS V14.00,2013-02-05 21:26:00,
2013-02-05 16:31:00,61.3,42.0,29.92,SW,228,10.0,12.0,49,0.00,,---,0.00,VWS V14.00,2013-02-05 21:31:00,
2013-02-05 16:36:00,61.1,41.8,29.92,SW,232,6.0,14.0,49,0.00,,---,0.00,VWS V14.00,2013-02-05 21:36:00,
2013-02-05 16:41:00,60.9,42.2,29.92,WSW,254,16.0,17.0,50,0.00,,---,0.00,VWS V14.00,2013-02-05 21:41:00,
2013-02-05 16:46:00,60.9,41.1,29.92,West,273,6.0,6.0,48,0.00,,---,0.00,VWS V14.00,2013-02-05 21:46:00,
2013-02-05 16:51:00,60.8,41.5,29.92,WSW,256,10.0,10.0,49,0.00,,---,0.00,VWS V14.00,2013-02-05 21:51:00,
2013-02-05 16:56:00,60.8,41.0,29.91,WSW,238,9.0,11.0,48,0.00,,---,0.00,VWS V14.00,2013-02-05 21:56:00,
2013-02-05 17:01:00,60.8,40.5,29.92,SSW,213,12.0,13.0,47,0.00,,---,0.00,VWS V14.00,2013-02-05 22:01:00,
2013-02-05 17:06:00,60.7,40.9,29.92,WNW,285,3.0,3.0,48,0.00,,---,0.00,VWS V14.00,2013-02-05 22:06:00,
2013-02-05 17:11:00,60.7,41.5,29.92,WNW,288,15.0,15.0,49,0.00,,---,0.00,VWS V14.00,2013-02-05 22:11:00,
2013-02-05 17:16:00,60.6,40.8,29.92,WSW,246,14.0,20.0,48,0.00,,---,0.00,VWS V14.00,2013-02-05 22:16:00,
2013-02-05 17:21:00,60.4,41.7,29.92,WNW,283,8.0,8.0,50,0.00,,---,0.00,VWS V14.00,2013-02-05 22:21:00,
2013-02-05 17:26:00,60.2,43.5,29.92,WSW,252,6.0,9.0,54,0.00,,---,0.00,VWS V14.00,2013-02-05 22:26:00,
2013-02-05 17:31:00,60.0,44.3,29.93,SW,228,10.0,10.0,56,0.00,,---,0.00,VWS V14.00,2013-02-05 22:31:00,
2013-02-05 17:36:00,59.7,44.5,29.93,WSW,258,10.0,10.0,57,0.00,,---,0.00,VWS V14.00,2013-02-05 22:36:00,
2013-02-05 17:41:00,59.4,44.6,29.93,SW,221,2.0,9.0,58,0.00,,---,0.00,VWS V14.00,2013-02-05 22:41:00,
2013-02-05 17:46:00,59.1,45.2,29.93,SW,222,8.0,13.0,60,0.00,,---,0.00,VWS V14.00,2013-02-05 22:46:00,
2013-02-05 17:51:00,58.9,45.5,29.93,WSW,252,11.0,16.0,61,0.00,,---,0.00,VWS V14.00,2013-02-05 22:51:00,
2013-02-05 17:56:00,58.6,45.6,29.93,SSW,211,5.0,8.0,62,0.00,,---,0.00,VWS V14.00,2013-02-05 22:56:00,
2013-02-05 18:01:00,58.4,45.9,29.93,WSW,244,6.0,12.0,63,0.00,,---,0.00,VWS V14.00,2013-02-05 23:01:00,
2013-02-05 18:06:00,58.1,45.6,29.93,WSW,253,7.0,11.0,63,0.00,,---,0.00,VWS V14.00,2013-02-05 23:06:00,
2013-02-05 18:11:00,58.0,45.9,29.94,WSW,248,5.0,6.0,64,0.00,,---,0.00,VWS V14.00,2013-02-05 23:11:00,
2013-02-05 18:16:00,57.8,45.7,29.94,WSW,247,4.0,4.0,64,0.00,,---,0.00,VWS V14.00,2013-02-05 23:16:00,
2013-02-05 18:21:00,57.6,45.5,29.94,West,259,4.0,4.0,64,0.00,,---,0.00,VWS V14.00,2013-02-05 23:21:00,
2013-02-05 18:26:00,57.3,45.7,29.94,WSW,252,5.0,6.0,65,0.00,,---,0.00,VWS V14.00,2013-02-05 23:26:00,
2013-02-05 18:31:00,57.1,45.9,29.94,WSW,248,4.0,4.0,66,0.00,,---,0.00,VWS V14.00,2013-02-05 23:31:00,
2013-02-05 18:36:00,56.9,45.7,29.94,WSW,240,6.0,7.0,66,0.00,,---,0.00,VWS V14.00,2013-02-05 23:36:00,
2013-02-05 18:41:00,56.8,46.0,29.94,SW,223,6.0,6.0,67,0.00,,---,0.00,VWS V14.00,2013-02-05 23:41:00,
2013-02-05 18:46:00,56.6,45.8,29.94,WSW,246,4.0,4.0,67,0.00,,---,0.00,VWS V14.00,2013-02-05 23:46:00,
2013-02-05 18:51:00,56.4,45.6,29.94,SSW,211,9.0,9.0,67,0.00,,---,0.00,VWS V14.00,2013-02-05 23:51:00,
2013-02-05 18:56:00,56.2,45.8,29.95,WSW,254,5.0,5.0,68,0.00,,---,0.00,VWS V14.00,2013-02-05 23:56:00,
2013-02-05 19:01:00,56.1,45.7,29.95,WSW,250,3.0,4.0,68,0.00,,---,0.00,VWS V14.00,2013-02-06 00:01:00,
2013-02-05 19:06:00,55.9,45.9,29.95,SW,218,3.0,3.0,69,0.00,,---,0.00,VWS V14.00,2013-02-06 00:06:00,
2013-02-05 19:11:00,55.7,45.7,29.96,SW,217,5.0,6.0,69,0.00,,---,0.00,VWS V14.00,2013-02-06 00:11:00,
2013-02-05 19:16:00,55.6,46.0,29.96,WSW,251,5.0,6.0,70,0.00,,---,0.00,VWS V14.00,2013-02-06 00:16:00,
2013-02-05 19:21:00,55.5,45.9,29.96,WSW,247,4.0,4.0,70,0.00,,---,0.00,VWS V14.00,2013-02-06 00:21:00,
2013-02-05 19:26:00,55.4,46.2,29.96,SW,226,10.0,10.0,71,0.00,,---,0.00,VWS V14.00,2013-02-06 00:26:00,
2013-02-05 19:31:00,55.4,46.2,29.97,SW,234,5.0,5.0,71,0.00,,---,0.00,VWS V14.00,2013-02-06 00:31:00,
2013-02-05 19:36:00,55.3,46.1,29.96,SW,220,10.0,10.0,71,0.00,,---,0.00,VWS V14.00,2013-02-06 00:36:00,
2013-02-05 19:41:00,55.2,46.3,29.97,SW,231,5.0,5.0,72,0.00,,---,0.00,VWS V14.00,2013-02-06 00:41:00,
2013-02-05 19:46:00,55.0,46.5,29.97,West,265,8.0,9.0,73,0.00,,---,0.00,VWS V14.00,2013-02-06 00:46:00,
2013-02-05 19:51:00,54.9,46.4,29.97,WSW,258,4.0,5.0,73,0.00,,---,0.00,VWS V14.00,2013-02-06 00:51:00,
2013-02-05 19:56:00,54.8,46.3,29.97,SW,228,7.0,8.0,73,0.00,,---,0.00,VWS V14.00,2013-02-06 00:56:00,
2013-02-05 20:01:00,54.5,46.4,29.97,SW,221,5.0,7.0,74,0.00,,---,0.00,VWS V14.00,2013-02-06 01:01:00,
2013-02-05 20:06:00,54.2,46.1,29.97,SW,231,5.0,7.0,74,0.00,,---,0.00,VWS V14.00,2013-02-06 01:06:00,
2013-02-05 20:11:00,54.1,46.4,29.97,West,261,3.0,4.0,75,0.00,,---,0.00,VWS V14.00,2013-02-06 01:11:00,
2013-02-05 20:16:00,53.9,46.2,29.97,WSW,249,4.0,5.0,75,0.00,,---,0.00,VWS V14.00,2013-02-06 01:16:00,
2013-02-05 20:21:00,53.7,46.3,29.97,SW,231,7.0,7.0,76,0.00,,---,0.00,VWS V14.00,2013-02-06 01:21:00,
2013-02-05 20:26:00,53.6,46.6,29.97,SW,233,8.0,8.0,77,0.00,,---,0.00,VWS V14.00,2013-02-06 01:26:00,
2013-02-05 20:31:00,53.4,46.4,29.97,SW,226,6.0,7.0,77,0.00,,---,0.00,VWS V14.00,2013-02-06 01:31:00,
2013-02-05 20:36:00,53.2,46.5,29.98,WSW,248,8.0,10.0,78,0.00,,---,0.00,VWS V14.00,2013-02-06 01:36:00,
2013-02-05 20:41:00,53.2,46.5,29.98,West,259,2.0,3.0,78,0.00,,---,0.00,VWS V14.00,2013-02-06 01:41:00,
2013-02-05 20:46:00,53.0,46.3,29.98,WSW,248,7.0,7.0,78,0.00,,---,0.00,VWS V14.00,2013-02-06 01:46:00,
2013-02-05 20:51:00,52.9,46.6,29.98,SSW,192,6.0,6.0,79,0.00,,---,0.00,VWS V14.00,2013-02-06 01:51:00,
2013-02-05 20:56:00,52.8,46.5,29.98,WSW,242,8.0,8.0,79,0.00,,---,0.00,VWS V14.00,2013-02-06 01:56:00,
2013-02-05 21:01:00,52.7,46.4,29.98,West,277,3.0,4.0,79,0.00,,---,0.00,VWS V14.00,2013-02-06 02:01:00,
2013-02-05 21:06:00,52.6,46.6,29.98,SW,234,10.0,10.0,80,0.00,,---,0.00,VWS V14.00,2013-02-06 02:06:00,
2013-02-05 21:11:00,52.5,46.5,29.98,WSW,249,8.0,10.0,80,0.00,,---,0.00,VWS V14.00,2013-02-06 02:11:00,
2013-02-05 21:16:00,52.3,46.3,29.98,WSW,251,4.0,8.0,80,0.00,,---,0.00,VWS V14.00,2013-02-06 02:16:00,
2013-02-05 21:21:00,52.2,46.2,29.99,WSW,246,6.0,8.0,80,0.00,,---,0.00,VWS V14.00,2013-02-06 02:21:00,
2013-02-05 21:26:00,52.0,46.4,29.99,SW,235,6.0,6.0,81,0.00,,---,0.00,VWS V14.00,2013-02-06 02:26:00,
2013-02-05 21:31:00,51.9,46.3,29.99,WSW,242,3.0,8.0,81,0.00,,---,0.00,VWS V14.00,2013-02-06 02:31:00,
2013-02-05 21:36:00,51.8,46.2,29.99,WSW,242,8.0,9.0,81,0.00,,---,0.00,VWS V14.00,2013-02-06 02:36:00,
2013-02-05 21:41:00,51.7,46.1,29.99,WSW,246,8.0,12.0,81,0.00,,---,0.00,VWS V14.00,2013-02-06 02:41:00,
2013-02-05 21:46:00,51.6,46.3,29.99,WSW,253,5.0,5.0,82,0.00,,---,0.00,VWS V14.00,2013-02-06 02:46:00,
2013-02-05 21:51:00,51.4,46.1,30.00,WSW,253,5.0,7.0,82,0.00,,---,0.00,VWS V14.00,2013-02-06 02:51:00,
2013-02-05 21:56:00,51.3,46.0,30.00,WSW,239,7.0,11.0,82,0.00,,---,0.00,VWS V14.00,2013-02-06 02:56:00,
2013-02-05 22:01:00,51.2,46.2,29.99,SW,229,11.0,11.0,83,0.00,,---,0.00,VWS V14.00,2013-02-06 03:01:00,
2013-02-05 22:06:00,51.1,46.1,29.99,WSW,249,6.0,7.0,83,0.00,,---,0.00,VWS V14.00,2013-02-06 03:06:00,
2013-02-05 22:11:00,51.0,46.0,29.99,West,263,6.0,6.0,83,0.00,,---,0.00,VWS V14.00,2013-02-06 03:11:00,
2013-02-05 22:16:00,50.9,45.9,29.99,WSW,250,5.0,6.0,83,0.00,,---,0.00,VWS V14.00,2013-02-06 03:16:00,
2013-02-05 22:21:00,50.8,45.8,29.99,West,269,5.0,7.0,83,0.00,,---,0.00,VWS V14.00,2013-02-06 03:21:00,
2013-02-05 22:26:00,50.7,46.0,30.00,West,277,5.0,5.0,84,0.00,,---,0.00,VWS V14.00,2013-02-06 03:26:00,
2013-02-05 22:31:00,50.6,45.6,30.00,NW,318,2.0,4.0,83,0.00,,---,0.00,VWS V14.00,2013-02-06 03:31:00,
2013-02-05 22:36:00,50.4,45.8,30.00,West,267,5.0,5.0,84,0.00,,---,0.00,VWS V14.00,2013-02-06 03:36:00,
2013-02-05 22:41:00,50.3,45.7,30.00,West,263,7.0,8.0,84,0.00,,---,0.00,VWS V14.00,2013-02-06 03:41:00,
2013-02-05 22:46:00,50.1,45.5,30.00,West,267,0.0,1.0,84,0.00,,---,0.00,VWS V14.00,2013-02-06 03:46:00,
2013-02-05 22:51:00,49.9,45.3,30.00,West,267,0.0,1.0,84,0.00,,---,0.00,VWS V14.00,2013-02-06 03:51:00,
2013-02-05 22:56:00,49.6,45.3,30.00,West,272,1.0,3.0,85,0.00,,---,0.00,VWS V14.00,2013-02-06 03:56:00,
2013-02-05 23:01:00,49.3,45.3,30.00,West,267,4.0,7.0,86,0.00,,---,0.00,VWS V14.00,2013-02-06 04:01:00,
2013-02-05 23:06:00,49.1,45.1,29.99,WSW,250,0.0,3.0,86,0.00,,---,0.00,VWS V14.00,2013-02-06 04:06:00,
2013-02-05 23:11:00,49.0,45.0,30.00,West,262,1.0,1.0,86,0.00,,---,0.00,VWS V14.00,2013-02-06 04:11:00,
2013-02-05 23:16:00,48.7,44.7,30.00,West,273,0.0,0.0,86,0.00,,---,0.00,VWS V14.00,2013-02-06 04:16:00,
2013-02-05 23:21:00,48.3,44.3,30.00,West,273,0.0,0.0,86,0.00,,---,0.00,VWS V14.00,2013-02-06 04:21:00,
2013-02-05 23:26:00,48.0,44.0,30.00,West,273,0.0,0.0,86,0.00,,---,0.00,VWS V14.00,2013-02-06 04:26:00,
2013-02-05 23:31:00,47.7,44.0,30.00,West,273,0.0,0.0,87,0.00,,---,0.00,VWS V14.00,2013-02-06 04:31:00,
2013-02-05 23:36:00,47.3,43.6,30.00,West,273,4.0,4.0,87,0.00,,---,0.00,VWS V14.00,2013-02-06 04:36:00,
2013-02-05 23:41:00,47.0,43.3,30.00,West,273,0.0,0.0,87,0.00,,---,0.00,VWS V14.00,2013-02-06 04:41:00,
2013-02-05 23:46:00,46.7,43.3,30.00,West,272,0.0,0.0,88,0.00,,---,0.00,VWS V14.00,2013-02-06 04:46:00,
2013-02-05 23:51:00,46.4,43.3,30.00,West,272,0.0,0.0,89,0.00,,---,0.00,VWS V14.00,2013-02-06 04:51:00,
2013-02-05 23:56:00,46.2,43.4,30.00,West,270,0.0,1.0,90,0.00,,---,0.00,VWS V14.00,2013-02-06 04:56:00,